OPS 4682 DEB, 51501

Orbit data source: Space-Track

OPS 4682 DEB, 51501 is space debris in LEO originally from a launch on Sat, 03 Apr 1965 UTC launched from the Air Force Western Test Range (AFWTR). Debris objects in space refer to the collection of defunct objects orbiting the Earth. Examples of debris include non-operational satellites, rocket bodies, and fragments generated from explosions, collisions, or faulty payload assembly.

Loading next visibility...
Identifier
51501, 1965-027GM
Orbit
LEO
Country
Flag of USUS
Related business
Manufacturer
Unknown
Mission
Spacecraft
Bus & Motor
Unknown
Mass
Unknown
Launch date (UTC)
1965-04-03 (61 years ago)
Launch vehicle
Unknown
Launch site
Air Force Western Test Range (AFWTR)
Object type
Payload
Rocket body
Debris
Shape & HBR
Unknown shape, 0.1 m
Radar Cross Section
Medium (>0.1 m² and <1 m²)

Expand to show TLE details & history
Last TLE update: 1 day ago

TLE from 1 day ago
0 OPS 4682 DEB
1 51501U 65027GM  26262.65705373 -.00000201  00000-0 -60456-3 0  9995
2 51501  90.3527  47.2678 0022241  81.4072 278.9574 13.09332914541116
Epoch: 2026-09-19T15:46Z
TLE epoch observation values (Epoch: 2026-09-19T15:46:09.442Z)
Latitude
-0.00004°
Longitude
172.16601°
Altitude
1,226.037 km
Speed
7.243 km/s
True Right ascension
03h 09m 04s
True Declination
0° 00' 00"
Sunlit
Object was in full shadow at epoch
Visualization orbit readout
Latitude
Unknown
Longitude
Unknown
Altitude
Unknown
Speed
Unknown
Apparent Right ascension
Unknown
Apparent Declination
Unknown
Sunlit
N/A
Visualization observer readout
Local Sidereal Time
18:55:44
Azimuth
Unknown
Elevation
Unknown
Doppler factor
Unknown
Orbital elements
Apogee altitude
1,239.756 km
Perigee altitude
1,205.945 km
Semi-major axis
7,600.987 km
Eccentricity
0.00222
Inclination
90.3527°
RAAN
47.2678°
Arg. of periapsis
81.4072°
True anomaly
278.70554°
Mean anomaly
278.9574°
Eccentric anomaly
278.83148°
Mean motion
3.2752 °/min
Orbital period
109.92 mins
BSTAR
-0.00060456
Loading maneuver chart data...
Computing Atmospheric mass density...
Loading historical data...
Loading historical data...
Loading historical data...
Loading historical data...
Loading historical data...
Loading historical data...
Loading historical data...

Documentation

Showing up to 5 results
|